GEFSGL_500_meanwind_114.txt.gz
Wind_Speed
10 11 12 13 14 14 15 15 15 16 16 15 14 14 12 10 7 5 4 2 1 1 3 5 7 9 11 13 15 16 17 20 21 22 22 23 23 24 25 25 27 29 30
10 11 11 12 13 13 13 14 14 14 15 14 14 13 13 12 9 7 5 3 2 1 2 4 6 8 10 11 12 14 15 16 18 19 20 21 21 22 23 24 25 27 29
10 10 11 11 12 12 12 13 13 13 13 13 13 12 12 11 10 8 6 5 3 1 1 3 5 6 8 10 11 12 13 14 16 17 18 19 20 20 21 23 24 26 27
11 11 11 11 11 11 11 12 12 12 12 12 12 12 11 11 10 9 7 6 5 3 1 1 3 5 7 8 10 11 12 13 15 16 17 17 18 18 20 21 22 22 25
13 12 11 11 11 11 11 11 11 11 11 11 11 11 11 10 10 9 7 6 5 4 2 1 1 3 5 7 9 9 10 12 13 14 15 16 17 17 19 20 21 22 24
15 14 13 12 11 11 11 10 10 10 10 10 10 10 9 9 9 9 8 6 5 4 3 2 1 2 3 5 7 8 9 11 12 12 13 14 15 16 17 18 19 21 23
17 16 15 14 13 12 12 11 10 10 10 10 9 9 9 8 8 8 8 6 5 5 4 3 2 2 3 4 5 7 8 10 11 12 12 12 13 14 15 15 16 17 19
19 18 17 16 15 14 13 12 11 11 10 10 9 9 8 8 8 7 7 7 6 5 4 4 4 3 3 4 5 6 8 9 10 11 12 12 13 13 14 15 16 17 18
21 21 20 19 18 17 15 14 13 12 12 11 10 9 9 8 8 7 7 7 6 6 6 5 5 5 5 5 6 7 8 9 10 11 12 13 14 14 15 15 16 17 18
24 23 22 21 20 19 18 17 16 14 13 12 11 11 10 10 9 9 8 8 7 7 7 7 7 7 7 7 8 8 9 10 11 11 12 13 14 15 16 16 17 17 18
26 26 25 24 23 22 21 19 18 17 16 14 13 12 12 11 11 10 10 10 9 9 9 9 9 9 9 9 10 10 11 11 12 13 14 15 16 16 17 18 18 18 19
29 28 27 26 25 25 23 22 21 19 18 17 16 15 14 13 13 13 12 12 11 11 11 11 11 11 11 11 12 12 13 14 14 15 16 16 17 17 18 18 19 19 20
31 31 30 29 28 27 26 25 23 22 21 19 18 17 16 15 15 15 14 14 14 13 13 13 13 13 13 13 14 14 14 15 16 16 17 17 18 19 19 20 21 21 21
34 33 33 31 31 30 29 28 26 25 23 22 21 20 19 18 17 17 16 16 16 15 15 15 15 15 15 15 16 16 16 17 17 18 19 20 20 21 21 22 23 23 24
37 36 35 34 33 32 32 30 29 28 26 25 24 23 22 21 20 19 19 18 18 17 17 17 17 17 17 18 18 18 19 19 19 20 21 21 22 23 23 24 24 25 25
41 39 38 37 36 35 34 33 32 30 29 28 27 26 24 23 22 21 21 20 20 20 19 19 19 19 20 20 20 20 20 21 21 22 22 23 23 24 25 25 26 26 27
44 42 41 40 39 37 36 35 34 33 32 30 29 28 27 26 25 24 23 22 22 22 21 21 21 21 21 22 22 22 22 23 23 23 24 24 25 26 26 27 28 28 29
46 45 44 43 42 40 39 37 36 35 34 33 32 31 29 28 27 26 25 24 24 23 23 23 23 23 23 23 24 24 24 24 25 25 25 26 26 27 28 29 30 30 31
47 47 46 45 44 43 42 40 38 37 36 35 34 33 32 31 29 28 27 26 26 25 25 25 24 24 25 25 25 25 25 26 26 27 27 28 28 29 30 31 31 32 33
48 48 48 48 46 45 44 43 41 40 39 38 36 35 34 33 31 30 29 28 28 27 27 26 26 26 26 26 26 26 27 27 28 28 29 29 30 31 32 32 33 34 35
47 48 49 49 48 47 46 45 43 42 41 39 38 37 36 35 33 32 31 31 30 29 29 28 28 28 28 28 28 28 28 29 29 29 30 31 32 33 34 35 35 36 36
47 47 48 49 49 48 47 46 45 44 42 41 40 39 38 36 35 34 33 32 32 31 30 30 29 29 29 29 29 29 29 29 30 31 32 33 33 34 35 36 36 37 38
46 46 47 48 49 49 49 48 47 45 44 42 41 40 39 38 37 36 35 34 33 32 31 31 30 30 30 30 30 30 30 31 32 33 33 34 34 35 35 36 37 38 38
46 46 47 47 48 48 49 49 49 47 45 44 43 42 40 39 38 37 36 35 34 33 32 32 32 32 32 32 32 32 32 33 33 34 34 35 35 35 36 37 38 38 39
46 46 47 47 47 48 48 48 49 48 47 45 44 42 41 40 39 38 36 35 34 34 33 33 33 33 33 33 33 33 34 34 34 34 35 36 36 37 37 38 39 39 40
46 46 47 48 48 48 48 48 49 48 48 47 45 43 42 40 39 38 37 36 35 35 34 34 33 33 34 34 34 34 34 34 35 35 35 36 36 37 38 39 40 40 40

GEFSGL_500_meanwind_120.txt.gz
Wind_Speed
13 13 14 14 14 14 14 15 15 14 14 14 14 13 13 11 10 8 7 5 4 2 2 4 6 8 10 12 14 16 17 18 19 21 23 23 24 26 27 26 26 27 27
14 14 14 14 14 14 14 14 14 14 14 14 13 12 12 11 10 9 7 6 4 2 2 4 5 7 8 10 12 14 15 15 17 19 20 22 23 24 25 25 25 26 25
16 16 15 15 15 15 14 14 13 13 13 13 13 12 11 11 10 9 8 6 5 3 2 3 4 5 8 9 11 12 14 14 15 17 18 20 21 22 23 24 25 25 25
18 18 17 17 16 15 15 15 14 13 13 13 12 12 11 10 9 8 7 6 5 4 3 2 3 4 6 8 9 10 12 13 14 16 17 18 19 20 21 22 24 24 25
19 19 19 19 18 17 16 16 15 14 13 13 12 12 11 10 9 8 7 6 5 4 3 3 3 4 5 7 9 9 11 12 13 14 15 16 17 19 20 21 21 22 24
21 21 21 20 19 19 18 17 16 15 14 14 13 12 11 10 9 8 7 6 5 4 3 3 3 4 5 7 8 9 10 12 13 13 14 16 17 18 19 20 20 21 21
23 23 23 22 21 21 20 19 18 17 16 15 14 13 12 11 10 8 7 7 6 5 4 4 4 4 5 6 7 9 10 11 12 13 13 14 15 16 17 19 20 21 21
26 26 25 25 24 23 22 21 20 19 18 17 16 15 14 13 11 10 9 7 7 6 5 5 5 5 6 6 7 8 9 10 11 12 12 13 15 16 16 18 19 21 21
29 29 28 28 27 26 25 24 23 22 21 20 18 17 16 15 13 12 11 10 9 8 7 7 6 6 7 7 8 8 9 10 11 12 14 14 15 16 17 18 18 19 20
32 32 31 30 30 29 28 27 25 25 24 22 21 20 18 17 16 15 13 12 11 11 10 10 9 9 9 9 9 9 10 11 12 12 13 14 15 16 17 17 18 18 19
35 34 34 33 32 32 31 30 29 27 26 25 24 22 21 20 19 18 17 16 14 13 13 12 12 11 11 10 11 11 12 12 13 13 14 14 15 16 17 17 18 18 19
39 37 36 36 36 34 34 33 32 31 29 28 26 25 24 23 22 20 20 19 18 17 16 15 15 14 14 13 13 13 14 14 14 15 15 16 16 16 17 18 19 20 21
41 40 40 39 39 38 37 36 35 34 32 31 29 28 27 26 24 23 22 21 21 20 19 18 17 17 16 16 16 16 16 16 16 17 17 17 18 18 18 19 20 21 22
44 43 42 42 42 41 40 39 38 37 35 34 32 31 30 29 27 26 25 24 23 23 22 21 20 19 19 18 18 18 18 19 18 19 19 19 20 20 21 21 22 22 24
45 45 44 44 44 43 42 42 41 39 38 37 35 34 32 31 30 29 28 27 26 25 24 23 23 22 21 20 20 20 20 20 20 20 20 20 21 21 22 22 23 24 24
46 45 45 44 44 44 44 44 44 42 41 40 39 37 36 34 33 32 31 30 29 28 27 26 25 24 23 22 22 21 21 21 21 21 22 22 22 22 23 24 24 25 26
46 45 44 44 44 44 44 45 45 45 44 43 41 40 39 37 36 35 34 32 31 30 29 28 27 26 25 25 24 23 23 23 23 23 23 23 23 24 24 25 25 26 26
46 45 45 44 44 44 45 46 46 46 46 45 44 43 42 41 39 38 37 35 34 33 31 30 29 28 27 26 26 25 25 24 24 24 24 25 25 25 25 26 26 26 27
46 45 45 45 45 45 45 46 47 47 47 47 46 46 45 44 42 41 40 38 36 35 33 32 31 30 29 28 28 27 26 26 26 25 25 26 26 26 26 27 27 28 29
46 46 46 46 46 46 46 46 47 48 48 48 48 48 48 47 45 44 42 40 39 37 35 34 33 32 31 30 29 28 28 27 27 27 26 26 27 27 28 28 28 29 30
45 45 45 45 46 46 46 46 47 48 48 48 48 48 49 49 47 46 44 42 41 39 37 36 35 34 33 32 31 30 30 29 28 28 28 28 28 28 28 29 30 30 31
46 45 45 45 45 45 46 47 47 48 48 48 48 49 49 49 48 47 45 44 43 41 39 38 37 36 35 34 33 32 31 30 30 30 29 29 29 29 29 30 31 32 32
45 44 44 44 45 45 45 47 47 48 48 48 49 48 49 49 49 48 47 45 44 43 41 40 39 37 36 35 34 33 32 31 31 30 30 30 30 30 31 31 32 32 33
43 43 43 42 43 44 44 45 47 48 49 48 49 49 49 49 49 49 48 47 45 44 43 41 39 38 37 35 34 33 33 32 32 31 31 31 31 31 32 32 32 33 33
43 42 42 42 42 43 43 44 45 47 49 48 48 48 48 48 49 49 49 48 46 44 43 41 40 39 38 37 35 34 34 33 32 32 32 33 33 33 33 33 33 34 34
42 42 42 41 41 41 42 42 44 45 47 48 48 48 48 47 47 48 49 48 46 45 44 43 41 40 38 37 36 35 34 33 33 33 33 34 33 33 33 34 35 35 36

GEFSGL_500_meanwind_126.txt.gz
Wind_Speed
18 18 19 19 19 19 19 19 19 18 18 17 17 16 15 15 14 13 12 10 8 7 5 5 5 7 9 11 14 16 18 20 22 22 23 25 26 27 27 28 29 29 30
19 19 20 20 20 20 20 20 19 19 19 18 17 16 15 14 14 13 12 10 9 7 6 6 6 7 8 10 13 15 17 19 20 21 22 23 25 25 26 27 27 28 29
21 21 21 21 21 21 21 21 20 20 19 19 18 17 16 15 14 13 12 10 9 8 7 6 7 8 8 10 11 14 16 18 20 20 21 22 24 24 25 26 27 27 28
22 23 23 23 23 23 22 22 22 21 20 20 19 18 17 16 15 14 13 11 9 9 8 7 7 8 8 10 11 13 15 17 18 19 20 21 22 23 24 25 26 26 27
25 25 25 26 26 25 24 24 23 22 22 21 20 19 17 16 15 14 13 12 10 9 9 8 8 9 9 10 12 13 14 15 17 18 19 19 20 21 22 24 25 24 25
27 28 28 28 28 28 27 26 25 24 23 23 22 21 19 18 16 15 14 13 12 10 9 9 8 8 9 10 11 12 13 14 16 17 18 18 19 20 21 23 24 24 25
30 30 30 30 30 30 29 29 28 27 25 24 24 23 22 20 19 17 16 15 14 13 11 11 10 10 10 10 11 12 13 14 14 16 17 18 19 19 20 22 23 23 24
33 33 33 33 33 32 31 31 30 29 28 27 26 25 24 23 21 20 18 17 16 15 14 13 12 12 12 12 12 12 13 14 14 15 16 17 18 19 19 20 21 22 23
35 35 35 35 35 34 34 33 33 32 30 29 28 27 26 25 24 23 21 20 19 18 17 16 15 14 14 14 14 14 14 15 16 16 17 17 18 19 19 20 20 21 21
37 37 37 37 37 37 37 36 36 35 33 32 31 30 29 28 27 26 24 23 21 21 20 19 18 17 15 15 16 15 15 16 17 17 18 18 19 20 20 21 21 21 22
40 40 39 39 39 39 39 39 39 38 36 35 34 33 31 30 29 28 27 26 24 23 22 21 20 19 18 17 17 17 17 18 18 18 18 19 19 19 19 20 21 21 22
43 43 42 42 41 40 40 41 40 40 39 38 37 36 35 33 32 30 29 28 27 26 24 24 23 22 21 20 19 18 18 18 18 18 18 18 19 19 19 19 20 21 22
46 45 44 44 43 42 41 41 40 40 40 39 39 38 37 36 35 34 32 31 30 28 27 26 26 25 25 24 23 22 21 20 20 19 19 19 20 20 20 20 21 21 21
47 47 46 45 44 43 42 42 41 40 41 41 41 40 40 39 38 37 36 34 33 32 30 29 28 27 26 26 26 25 24 23 22 22 21 21 22 22 22 22 22 22 22
48 48 47 47 46 45 43 42 41 41 41 42 41 41 41 41 40 40 39 38 36 35 34 33 31 30 29 28 27 27 27 26 25 25 24 24 23 23 23 23 24 24 23
48 48 47 46 45 45 44 43 42 42 42 42 42 41 41 41 42 42 42 41 40 39 37 36 34 33 32 30 29 29 28 28 27 26 26 26 25 25 25 25 25 25 25
48 47 45 45 45 45 44 44 43 43 43 43 43 43 43 43 43 44 44 44 43 42 40 39 37 36 34 33 32 30 30 29 29 28 28 27 27 27 26 26 26 26 26
47 46 46 46 45 45 44 43 42 42 42 43 43 44 44 45 45 45 46 45 45 44 43 41 40 38 37 35 34 33 32 31 30 29 29 28 28 28 27 27 27 27 27
47 46 46 46 44 43 42 42 41 41 41 41 42 43 44 45 46 46 47 47 45 45 44 43 41 40 39 37 36 35 34 33 31 31 30 29 29 29 28 28 28 28 28
47 46 46 45 44 43 42 41 41 41 41 41 41 42 44 45 46 46 47 47 45 45 44 43 43 42 40 39 38 36 35 34 33 32 32 31 30 29 29 29 28 28 28
48 46 45 44 43 42 42 42 42 42 42 42 41 42 43 44 45 45 46 47 45 45 45 44 43 42 41 40 39 38 37 36 35 34 33 32 31 31 30 30 29 29 29
48 47 46 45 44 43 42 42 42 42 42 42 41 41 42 43 44 45 46 47 46 46 46 45 44 43 42 41 40 40 39 37 36 35 34 33 32 31 31 30 30 29 29
49 48 47 46 44 43 43 42 42 42 42 42 41 41 42 42 43 44 45 47 48 47 47 46 45 44 43 42 42 41 40 38 37 36 35 34 33 32 31 31 31 30 30
49 48 47 45 44 43 42 41 41 40 41 41 42 42 42 42 43 43 44 46 48 47 47 47 47 46 44 43 42 41 40 39 38 36 35 34 33 32 32 31 31 31 30
48 46 44 43 42 41 41 40 40 39 40 41 42 42 42 42 43 43 44 45 46 47 47 47 47 46 45 44 43 42 40 39 38 37 36 35 34 33 32 31 31 31 31
45 44 43 42 41 41 41 40 40 39 39 39 41 42 41 42 43 44 44 45 46 46 47 47 47 46 46 45 43 42 41 39 38 37 36 34 33 33 32 32 31 31 31

GEFSGL_500_meanwind_132.txt.gz
Wind_Speed
19 20 21 22 22 22 23 23 23 23 23 23 22 22 21 20 19 19 18 17 16 15 13 12 11 11 10 10 10 12 14 15 18 20 21 22 24 24 24 25 27 28 28
21 22 23 23 24 24 24 24 24 24 24 24 23 22 22 21 20 19 19 18 16 15 14 13 12 12 11 11 11 12 13 14 16 18 19 20 22 23 24 25 25 26 28
23 24 24 25 26 26 26 25 25 25 24 24 24 23 23 22 21 20 19 18 17 16 15 15 14 13 13 13 13 14 15 15 16 18 19 20 22 23 24 25 25 25 27
24 25 26 27 27 27 27 27 27 26 25 25 25 24 24 23 22 22 20 20 19 18 16 16 15 15 14 14 15 15 15 16 17 18 19 20 21 22 23 24 25 25 25
26 27 28 29 29 29 29 29 28 28 27 27 26 26 25 24 24 23 22 21 21 19 18 17 16 16 15 15 16 16 17 17 18 18 19 21 22 23 23 24 25 26 26
29 30 30 31 31 31 31 31 31 30 29 29 28 28 27 26 25 25 25 24 22 21 20 19 18 17 17 17 16 16 17 18 18 19 20 20 22 23 24 25 24 25 27
31 31 32 32 32 32 33 33 33 32 32 31 31 30 30 29 27 27 27 27 25 24 22 21 20 20 19 18 18 18 18 19 19 20 21 21 22 22 24 24 25 25 26
32 33 33 33 33 34 34 34 34 34 34 33 33 32 32 31 30 29 29 29 28 27 25 24 23 22 22 20 20 20 20 20 20 21 21 22 22 22 23 24 25 25 25
34 34 35 35 35 36 36 37 37 36 36 36 35 35 34 34 33 32 32 31 30 29 28 27 26 25 24 23 22 21 21 21 21 21 21 22 22 22 22 23 24 25 25
36 36 37 37 38 38 39 39 39 39 39 39 38 38 37 36 35 35 34 34 33 32 31 30 29 27 26 25 24 23 22 22 22 22 22 23 23 23 23 23 24 25 25
38 39 39 40 40 41 42 42 42 42 42 42 41 40 39 38 37 36 36 36 35 34 33 33 31 30 29 28 27 26 25 24 24 23 23 24 24 24 25 25 25 25 25
40 41 42 42 42 43 44 45 45 45 44 43 42 41 40 39 38 38 37 38 38 36 35 35 34 33 32 30 29 28 28 27 26 25 25 25 25 25 25 25 26 25 25
42 43 43 44 45 46 46 46 46 46 45 43 42 41 41 40 40 39 38 38 39 37 36 36 35 35 34 32 31 31 30 30 29 28 27 26 26 26 26 25 26 25 25
44 45 45 46 46 47 47 47 46 46 45 43 42 41 41 40 40 39 37 37 38 37 37 36 36 36 36 35 33 33 32 32 32 31 29 28 27 27 27 26 26 25 25
47 47 47 47 47 47 47 47 47 46 45 44 42 41 40 39 39 39 37 36 37 37 37 37 37 36 36 37 36 35 34 33 32 32 31 30 29 28 28 27 26 25 25
49 49 49 48 48 48 47 47 47 46 45 44 43 42 41 39 38 39 38 37 37 38 37 37 38 38 38 38 37 37 36 34 33 31 31 31 30 30 29 28 28 27 26
51 51 50 49 49 49 49 49 47 46 44 44 43 42 41 40 39 39 39 38 37 37 37 37 38 38 38 39 38 38 37 36 35 33 32 31 31 31 30 30 29 28 28
52 51 51 50 50 51 50 49 48 46 44 43 42 41 41 40 40 39 40 39 38 37 38 37 38 38 39 39 38 38 38 37 36 34 33 32 32 32 31 30 30 29 28
52 52 52 52 51 51 51 50 48 47 45 44 42 41 41 41 40 40 40 40 39 39 39 38 38 38 38 38 38 37 38 38 37 36 35 34 33 33 32 32 31 30 29
53 53 53 52 52 52 51 50 49 48 46 45 43 42 42 41 40 40 39 39 39 39 39 38 38 38 38 38 38 37 38 38 38 38 37 35 34 33 33 32 32 31 31
53 53 53 53 53 52 52 51 50 49 47 45 44 43 42 41 39 39 38 38 38 38 38 39 38 37 38 39 39 38 38 38 39 39 38 37 35 34 33 32 32 31 31
54 55 55 54 54 53 52 51 50 49 47 46 44 43 42 40 39 38 38 38 38 37 37 38 38 39 39 39 39 38 38 38 39 39 38 37 36 34 34 33 32 32 32
55 56 55 55 54 53 52 51 49 48 47 45 43 41 39 38 37 37 37 38 37 37 37 38 38 39 40 40 40 39 39 39 40 39 39 39 37 35 34 34 33 32 32
56 56 56 55 54 52 51 50 49 47 45 43 42 40 39 37 37 36 36 36 36 36 37 38 38 39 40 41 41 40 40 40 41 41 40 39 38 36 35 34 33 33 32
56 56 56 54 53 52 50 49 47 45 43 42 41 40 39 38 37 36 35 35 35 35 36 37 38 39 40 40 41 41 40 41 42 42 41 40 39 37 35 34 34 33 32
56 56 55 53 52 50 49 47 45 43 42 41 40 39 38 38 37 36 35 35 35 35 36 37 38 39 40 40 40 41 41 42 43 43 42 41 40 38 37 35 34 34 32

GEFSGL_500_meanwind_138.txt.gz
Wind_Speed
15 16 17 18 19 20 21 22 23 24 24 23 24 23 22 22 21 20 19 18 17 17 16 15 14 13 12 12 12 12 13 14 15 18 20 21 22 24 25 26 27 28 28
16 18 19 19 20 22 23 24 25 25 26 26 25 25 24 23 22 21 21 20 19 18 17 16 16 15 14 14 13 13 13 15 16 18 20 22 23 24 25 27 28 28 29
18 19 20 21 22 23 25 26 27 27 27 28 27 26 26 25 24 23 22 22 20 20 19 18 17 17 16 15 15 15 15 15 17 18 20 22 24 26 26 27 28 29 29
20 21 22 23 24 25 27 28 28 29 29 29 29 28 28 27 26 25 24 23 22 22 21 20 19 19 18 18 18 18 18 18 18 19 20 22 24 26 27 28 29 29 30
22 23 24 25 26 28 29 30 30 31 30 31 31 30 29 28 28 27 26 25 25 24 23 22 22 21 20 20 20 20 20 20 20 21 21 22 24 26 28 29 30 30 31
24 25 26 27 29 30 30 32 32 32 32 32 32 32 31 30 29 28 28 27 27 26 26 25 25 24 24 24 23 23 23 23 23 24 24 24 25 26 28 30 30 31 31
27 28 29 30 31 32 32 33 34 34 34 34 34 33 33 32 31 30 29 28 29 29 29 29 28 28 28 27 27 26 26 26 26 26 26 27 27 27 28 30 31 32 33
29 30 32 33 34 34 35 35 36 35 35 35 35 35 35 35 34 33 32 31 31 32 32 32 32 32 31 31 31 30 29 28 28 28 28 28 28 29 30 31 32 33 33
31 32 33 34 35 36 37 37 37 36 36 36 37 38 38 38 37 36 35 34 33 34 35 35 35 35 35 35 35 33 32 32 32 32 31 31 31 31 31 32 33 33 34
33 34 35 36 37 38 38 38 37 38 38 39 40 41 41 40 39 38 37 37 36 36 37 37 38 38 38 37 37 37 35 35 34 34 34 34 33 33 33 33 33 34 34
35 36 37 38 39 39 39 39 39 40 41 42 42 42 42 41 40 39 38 38 38 39 39 38 39 40 39 38 38 38 37 37 37 36 36 36 35 34 34 34 34 34 34
37 38 39 40 41 41 41 41 41 42 43 43 43 43 43 42 41 41 40 40 40 41 41 40 40 40 39 38 37 38 38 38 38 37 37 37 37 36 35 34 34 35 35
39 40 41 41 42 43 43 43 43 43 44 44 44 44 44 44 43 42 42 41 41 42 42 41 40 39 38 37 37 37 38 38 37 37 38 38 37 36 36 35 35 35 35
42 42 43 43 44 44 45 45 45 45 45 46 46 46 45 45 44 43 42 42 42 42 42 40 39 39 38 37 36 36 36 37 37 36 37 37 38 37 37 37 37 37 36
43 43 44 45 45 46 47 47 47 47 47 48 48 47 47 46 45 44 44 44 43 42 41 40 39 39 38 38 37 36 36 37 38 38 38 38 39 39 38 38 38 37 38
44 45 46 47 47 48 48 48 49 49 49 50 50 49 48 48 47 46 45 45 44 43 42 40 40 40 39 39 38 37 37 38 39 39 39 39 41 41 40 40 39 38 38
47 47 48 49 49 50 50 50 50 50 50 50 50 50 49 48 48 47 46 45 45 44 43 42 41 40 39 39 39 38 38 38 40 40 40 39 40 41 41 41 40 39 38
48 49 50 50 51 51 51 51 51 50 50 50 51 51 50 49 48 48 47 46 45 44 43 42 41 40 39 39 39 38 38 39 40 40 40 40 41 41 41 41 40 39 38
49 50 51 51 51 52 52 52 52 52 52 52 51 51 51 50 50 49 48 47 45 44 43 42 41 40 39 38 39 38 38 38 40 40 39 40 40 41 41 41 40 38 38
51 51 52 52 52 52 53 53 53 53 53 52 52 52 52 51 50 49 47 45 44 43 42 41 41 40 39 38 39 38 38 39 40 40 40 41 41 41 42 41 40 39 39
52 52 53 53 53 54 54 55 55 54 53 53 53 53 52 51 49 48 46 45 44 43 42 41 40 39 38 38 38 38 38 39 39 41 41 42 42 42 42 40 40 39 39
54 54 54 55 55 55 56 56 55 55 54 54 53 52 51 50 48 47 46 45 44 42 40 40 39 38 37 37 37 38 38 39 39 40 41 42 42 43 42 40 39 40 40
55 56 56 56 57 57 57 56 56 56 55 54 53 52 50 49 48 46 45 43 42 41 39 38 38 37 37 36 37 38 37 38 39 39 41 42 42 43 43 41 40 41 41
57 57 58 58 58 58 57 57 57 56 55 54 52 51 49 48 47 45 44 43 42 40 39 38 38 38 37 36 35 35 36 36 37 39 42 42 42 43 42 42 41 41 41
58 59 60 60 59 58 57 57 56 56 54 53 52 50 48 46 45 44 43 42 41 39 38 39 38 38 37 36 35 34 35 37 37 40 43 43 43 43 42 43 42 42 41
60 60 61 60 58 58 57 56 56 55 53 52 51 49 47 46 45 43 42 41 40 39 37 37 37 37 37 37 36 35 35 36 38 40 43 44 44 44 43 43 42 41 41

GEFSGL_500_meanwind_144.txt.gz
Wind_Speed
13 14 15 16 17 18 19 20 21 22 23 24 25 26 26 25 25 25 25 24 23 23 22 21 20 19 18 18 17 16 15 15 14 15 15 16 17 19 21 24 25 26 28
15 16 17 18 19 19 20 21 22 23 24 25 26 27 27 27 27 27 27 26 26 25 24 23 21 20 19 19 18 18 17 17 16 17 17 18 18 19 21 23 25 27 28
17 18 19 20 21 22 22 23 24 25 26 27 28 29 28 28 29 29 28 28 27 26 24 23 22 21 20 20 20 20 19 19 19 19 19 20 21 21 22 24 26 28 29
19 20 21 22 22 23 24 25 26 27 28 28 29 30 30 30 31 30 30 29 28 26 25 24 23 22 21 21 21 21 21 21 21 21 22 22 23 23 24 25 26 29 30
20 21 23 24 24 25 26 27 27 28 30 30 31 32 32 32 32 31 30 29 27 27 26 26 25 24 24 24 24 23 23 23 24 24 24 25 25 26 26 27 28 30 31
22 24 25 25 26 27 28 29 29 30 31 32 33 33 33 33 32 31 30 29 28 28 28 27 27 26 26 27 27 27 26 26 26 26 26 27 28 29 29 30 30 31 33
25 26 26 27 28 29 29 30 31 32 32 33 34 35 34 34 33 32 30 29 29 29 29 29 29 29 28 28 29 30 30 30 30 30 30 30 31 31 32 33 33 34 34
27 28 28 29 29 30 31 32 32 33 34 34 35 36 36 35 34 33 32 31 31 31 32 32 31 30 30 30 31 32 33 33 33 33 33 33 33 34 35 35 35 36 37
29 30 30 31 31 32 32 33 34 34 35 36 36 37 36 36 35 34 34 34 34 34 35 34 33 32 32 33 34 35 35 36 36 36 36 36 36 36 36 36 36 37 38
30 31 31 32 33 33 34 35 36 37 37 38 38 38 37 37 37 36 36 36 36 36 37 37 36 35 35 35 35 36 37 38 38 39 38 38 38 38 39 38 38 38 39
32 33 33 34 35 35 36 37 38 39 39 40 40 40 39 39 38 38 38 38 39 39 39 39 39 38 37 37 37 38 39 40 40 40 39 39 39 40 40 41 41 41 40
34 34 35 36 36 37 38 39 40 40 40 41 41 42 41 41 40 40 40 40 41 42 43 42 41 40 39 39 40 40 41 41 42 42 41 40 40 40 40 41 42 43 42
36 36 37 38 39 40 40 41 41 42 42 42 43 43 43 43 42 42 42 43 44 45 45 44 43 42 41 41 42 42 42 42 42 43 43 42 41 41 41 41 41 42 43
38 39 39 40 41 42 43 43 44 44 44 44 45 45 45 45 44 44 44 45 46 47 46 45 44 44 43 43 43 43 43 43 43 43 43 43 42 41 42 42 41 41 42
40 41 42 43 44 44 45 45 46 46 46 46 46 46 46 46 46 46 46 47 47 47 46 45 45 44 44 44 44 44 43 43 42 43 43 43 42 41 41 42 41 41 42
42 43 43 44 45 45 46 46 47 48 48 48 48 48 48 48 48 48 48 48 48 47 47 46 45 45 44 45 45 44 44 43 42 41 42 42 42 41 41 41 42 41 41
44 44 45 45 46 46 47 47 48 48 49 49 49 50 50 50 50 50 49 48 48 47 47 47 46 45 45 45 45 44 43 42 41 41 40 40 41 41 41 40 41 41 41
45 46 46 46 47 47 48 49 49 50 50 50 51 51 51 50 50 50 50 49 48 48 48 47 47 46 45 45 44 43 42 41 41 40 40 39 40 40 40 40 40 40 41
46 47 47 47 48 48 49 51 51 52 52 52 52 52 52 52 51 50 50 50 49 49 48 48 47 46 45 45 44 43 42 41 40 40 40 39 39 40 40 39 40 40 40
48 48 48 49 49 50 52 52 53 53 53 53 53 53 53 53 52 51 51 51 50 49 48 47 46 45 45 45 44 43 42 41 40 39 39 38 38 39 39 39 39 40 40
49 50 50 51 52 53 53 54 55 55 54 54 54 55 55 55 53 53 52 51 51 49 48 47 46 46 45 44 43 42 41 40 39 39 38 38 38 38 38 38 38 39 39
51 51 52 53 54 54 55 56 56 56 56 56 55 56 56 55 54 54 53 52 51 50 49 48 46 45 44 44 42 41 41 40 39 38 37 37 37 37 36 36 36 38 38
52 53 54 54 55 56 56 57 57 56 56 57 57 57 56 56 55 54 53 52 50 49 48 48 46 44 43 43 42 41 40 39 38 37 36 37 37 37 36 36 36 37 38
53 54 55 55 56 57 58 58 58 58 58 58 58 57 57 56 55 54 53 52 50 48 48 47 46 44 43 42 41 40 39 39 38 37 36 36 36 36 36 36 36 37 38
55 56 56 57 58 58 59 59 59 59 59 58 58 57 56 55 55 53 52 50 49 48 48 47 46 44 43 42 41 39 39 39 39 38 36 36 36 35 35 34 35 36 36
57 57 57 57 58 59 59 59 58 58 58 57 57 56 55 53 53 52 51 49 48 48 47 46 45 44 42 41 40 39 39 38 37 37 36 35 35 34 34 33 35 36 36

GEFSGL_500_meanwind_150.txt.gz
Wind_Speed
11 12 13 13 14 15 15 16 17 17 17 18 18 19 20 21 22 22 22 22 21 21 20 20 20 19 17 16 15 14 15 15 15 15 16 16 16 17 18 19 21 22 23
13 13 14 15 15 16 17 17 18 18 19 19 20 21 22 22 23 23 23 23 22 22 22 22 21 20 18 17 16 16 16 17 17 17 18 18 19 19 20 20 22 22 24
14 15 16 17 17 18 18 19 19 19 20 21 22 23 23 24 24 24 24 23 23 23 23 22 21 20 18 18 18 18 18 19 20 20 20 21 21 22 22 22 23 24 25
16 17 18 19 19 19 20 20 21 21 22 22 23 24 25 25 26 26 25 25 24 24 23 22 21 20 19 19 20 20 21 21 22 22 23 23 23 23 24 25 25 26 27
18 19 20 20 20 21 21 22 22 23 23 24 24 25 26 26 27 27 26 25 25 24 23 23 23 21 21 21 22 22 23 23 24 24 24 24 24 25 26 26 27 28 29
20 20 21 21 22 22 23 23 23 24 24 25 26 27 27 28 28 28 27 26 26 25 25 25 25 24 24 25 25 24 24 25 25 26 26 26 26 27 28 28 29 30 31
21 22 22 23 23 24 24 24 25 25 27 27 28 28 29 29 29 30 29 28 28 27 27 27 27 27 27 27 27 28 28 28 28 28 28 28 29 29 31 31 32 32 33
22 23 24 24 25 25 26 26 27 27 28 28 29 29 30 30 31 31 30 30 30 29 29 29 29 29 29 29 29 30 30 30 31 31 31 31 31 32 33 34 35 35 36
24 24 25 26 26 27 27 28 28 28 29 29 30 31 31 32 32 32 32 31 31 31 32 32 32 32 32 33 33 33 32 33 33 33 33 33 33 34 35 36 37 38 38
25 26 26 27 28 28 29 29 30 30 31 31 32 32 33 33 33 33 34 34 34 34 34 34 34 35 35 36 36 35 35 35 36 36 36 35 36 37 37 38 39 40 40
27 27 28 29 29 30 30 31 32 32 33 33 34 34 35 35 36 35 36 36 36 36 37 36 36 37 38 38 38 38 38 38 39 39 38 38 38 39 39 40 41 41 42
28 29 30 31 31 32 33 34 34 35 35 36 36 36 36 37 38 38 38 38 39 39 39 39 39 39 40 40 40 40 40 40 40 40 40 40 40 41 41 41 42 43 44
30 31 32 32 33 34 35 36 37 37 38 38 38 38 39 39 40 40 40 40 40 41 41 41 41 41 41 41 41 41 41 41 41 41 41 41 42 43 43 43 44 44 45
32 33 34 35 35 36 37 38 39 39 40 40 40 40 41 41 41 42 42 42 42 43 43 43 42 42 42 43 42 42 41 42 42 42 42 43 44 44 44 44 44 45 46
34 35 36 36 37 38 39 40 40 41 42 42 42 42 42 43 43 43 44 44 44 44 44 44 44 43 44 44 43 43 42 42 42 42 43 43 44 45 44 45 45 46 46
37 37 38 39 39 40 41 41 42 42 43 43 44 45 45 45 45 45 45 46 46 46 46 45 45 44 44 43 44 43 43 43 43 43 43 43 44 45 44 44 44 45 46
39 40 40 41 41 42 42 43 43 43 44 45 45 47 47 47 47 47 47 47 47 47 47 46 45 45 44 44 44 44 43 43 43 43 44 44 44 44 44 44 44 45 45
41 42 42 42 43 44 44 45 45 45 46 46 47 48 49 49 49 49 49 49 48 48 47 46 46 46 45 45 45 45 44 44 43 44 44 45 44 44 45 45 44 44 44
43 44 44 45 45 46 46 47 47 47 48 49 49 50 50 51 51 50 50 50 50 49 48 47 47 47 46 46 46 46 45 44 44 44 45 45 45 45 45 45 44 43 43
45 46 46 47 47 48 48 49 49 50 51 51 52 52 53 52 52 52 52 51 51 50 49 48 48 48 47 47 47 47 46 45 45 45 45 45 44 44 44 44 43 42 41
47 48 48 49 49 50 50 51 52 53 53 54 54 54 54 54 54 53 53 52 51 51 50 49 49 48 48 47 47 47 46 46 46 45 45 44 43 43 43 42 42 41 40
49 50 50 51 51 52 53 54 54 55 55 55 55 55 55 55 54 53 53 52 52 51 51 51 50 48 48 47 47 46 46 46 46 46 44 43 42 42 41 41 41 40 39
51 52 52 53 54 54 55 56 56 56 56 56 56 56 55 54 54 53 53 52 52 51 51 51 49 48 47 47 47 46 46 46 46 44 43 41 40 40 40 40 40 39 38
53 54 54 54 55 56 56 56 57 57 56 56 56 55 54 54 54 53 53 52 52 51 50 49 49 47 46 46 46 45 44 44 44 43 42 41 39 39 39 38 38 38 37
54 55 55 56 56 57 57 57 57 57 57 56 56 55 54 54 53 52 52 52 52 51 50 50 49 48 46 46 46 45 44 43 42 42 41 41 39 38 37 36 36 35 34
56 56 57 57 58 58 58 58 58 58 57 57 56 56 54 54 53 52 52 52 51 51 49 49 49 48 47 45 44 43 42 41 41 41 40 39 37 36 36 34 34 34 34

GEFSGL_500_meanwind_156.txt.gz
Wind_Speed
13 13 13 13 14 14 15 15 16 16 16 17 17 18 18 19 19 20 21 21 21 21 21 20 20 19 19 18 17 17 16 15 14 14 14 15 15 16 17 17 18 19 19
14 14 14 15 15 16 16 17 17 18 18 18 18 19 19 20 20 21 22 22 22 21 21 21 21 20 19 18 18 18 17 16 16 15 16 16 16 17 18 19 19 20 21
15 15 16 16 17 17 18 18 19 19 19 19 19 20 20 20 21 22 23 22 22 22 23 22 21 20 19 19 18 18 17 17 17 17 17 17 18 18 19 20 21 21 22
16 17 17 18 18 19 19 20 20 20 20 20 20 20 21 22 23 24 24 23 24 24 24 23 22 21 20 19 19 18 18 18 18 18 18 19 20 20 21 21 22 23 23
17 18 18 19 20 20 21 21 21 21 21 21 21 22 22 23 24 24 25 25 25 25 25 24 23 22 21 20 20 20 20 20 20 20 21 22 23 23 24 24 25 25 26
18 19 20 21 21 22 22 22 23 23 23 23 23 23 24 25 25 26 26 26 26 26 25 25 25 24 23 23 22 23 23 23 23 23 24 25 27 28 28 28 28 29 29
20 20 21 22 22 23 23 24 24 24 24 24 24 25 26 26 26 26 27 27 28 27 27 27 27 26 26 26 25 25 26 26 27 27 28 29 30 31 31 32 32 32 33
21 21 22 23 23 24 24 24 24 24 25 25 26 26 27 27 28 28 29 30 30 30 29 29 29 28 28 29 29 29 29 30 30 31 32 33 33 33 34 34 35 35 36
22 23 23 24 24 24 25 25 26 26 27 27 28 28 28 29 30 31 31 31 31 31 31 31 31 31 31 31 32 32 32 33 34 34 35 35 36 36 37 38 38 38 38
24 24 25 25 25 25 26 27 28 28 28 29 29 30 30 31 32 33 33 33 33 33 34 33 33 33 34 34 35 35 35 36 37 37 38 38 39 40 41 41 41 42 41
24 25 26 26 26 27 28 29 29 30 30 30 31 32 32 33 34 35 35 36 36 36 36 36 35 36 36 37 37 38 39 39 39 40 40 41 42 42 42 43 43 44 43
25 26 27 28 28 29 30 31 31 32 32 33 33 34 35 36 36 37 37 37 38 38 38 38 38 38 38 39 40 40 41 41 41 42 42 42 42 42 43 43 44 44 44
28 28 29 30 30 31 32 32 33 34 34 35 36 36 37 38 38 39 39 39 40 40 40 40 40 40 41 41 41 42 42 43 43 43 43 43 42 43 43 43 44 44 44
30 30 31 32 32 33 34 35 35 36 37 37 38 39 39 40 41 41 42 42 42 42 42 42 42 42 43 43 43 43 44 44 44 44 43 43 43 43 44 44 44 44 44
32 32 33 34 34 35 36 37 37 38 39 40 40 41 42 42 43 44 44 44 44 44 44 44 44 44 44 44 44 44 44 44 44 44 44 44 44 44 44 44 44 45 45
34 34 35 36 37 38 38 39 39 40 41 42 43 44 44 45 45 46 46 46 46 46 46 46 46 46 46 46 46 45 45 45 44 44 44 45 46 46 45 46 46 46 46
36 37 37 38 39 40 41 41 42 42 43 44 45 46 47 47 48 48 48 49 49 49 49 49 49 48 48 48 47 47 46 45 45 45 45 46 45 45 45 45 45 46 46
38 39 40 41 42 42 43 44 44 45 46 46 47 48 49 50 50 51 51 51 51 51 51 51 50 50 49 49 48 47 46 45 45 46 46 46 46 45 45 45 45 46 46
41 42 43 44 45 46 46 47 47 48 49 49 50 50 51 52 52 53 53 53 53 52 52 52 51 51 50 49 48 47 46 46 46 47 47 47 47 46 45 46 45 45 45
44 45 46 47 48 49 49 50 50 51 51 52 52 52 53 53 54 54 55 55 54 54 54 53 52 51 51 50 48 46 46 47 47 46 46 46 46 46 45 45 45 45 45
46 47 48 49 49 50 51 51 52 52 52 52 53 53 54 55 56 56 56 56 56 55 54 53 52 51 50 50 48 47 47 47 46 45 45 45 45 45 44 44 44 44 44
48 49 49 50 51 51 52 52 52 53 53 54 55 55 56 57 57 57 57 56 56 55 54 53 51 50 49 48 47 47 47 46 46 46 45 45 45 44 44 44 44 43 43
50 51 51 52 53 53 54 54 55 55 56 56 56 56 56 57 57 58 57 56 55 54 53 52 51 50 49 48 47 47 47 46 46 47 46 46 45 45 45 43 42 42 42
51 52 53 53 54 55 55 56 56 57 57 57 57 57 57 57 58 58 58 56 55 54 53 52 51 50 49 48 47 47 46 46 46 47 47 47 46 45 44 43 42 42 41
53 53 54 55 55 56 56 57 57 57 57 57 58 57 57 57 57 57 57 55 54 53 52 52 51 50 49 48 48 47 47 47 47 47 47 46 45 44 43 42 41 41 40
54 55 56 57 57 57 58 58 58 58 58 58 58 58 58 57 57 56 55 54 53 52 51 51 51 51 50 49 49 49 48 47 46 46 45 44 43 42 42 41 41 40 38